This is the latest recevied weather packets stored in our database for station/object KI4BSX. If no packets are shown the sender has not sent any weather packets the latest 10 day(s).
| Time | Temp. | Humidity | Pressure | Rain* | Wind** | Luminosity | Snow |
|---|---|---|---|---|---|---|---|
| 1777747676 | 20° C | 67% | 1014.2 hPa | 0 mm | - | - | - |
| 1777747372 | 20° C | 69% | 1014.3 hPa | 0 mm | - | - | - |
| 1777747069 | 19.44° C | 70% | 1014.3 hPa | 0 mm | - | - | - |
| 1777746765 | 18.89° C | 70% | 1014.5 hPa | 0 mm | - | - | - |
| 1777746460 | 18.33° C | 71% | 1014.6 hPa | 0 mm | - | - | - |
| 1777746156 | 17.78° C | 70% | 1014.8 hPa | 0 mm | - | - | - |
| 1777745852 | 18.33° C | 70% | 1014.8 hPa | 0 mm | - | - | - |
| 1777745551 | 18.89° C | 69% | 1014.5 hPa | 0 mm | - | - | - |
| 1777745248 | 19.44° C | 69% | 1014.7 hPa | 0 mm | - | - | - |
| 1777744946 | 19.44° C | 70% | 1014.8 hPa | 0 mm | - | - | - |
| 1777744645 | 18.89° C | 69% | 1014.8 hPa | 0 mm | - | - | - |
| 1777744340 | 18.89° C | 70% | 1014.6 hPa | 0 mm | - | - | - |
| 1777744038 | 18.33° C | 69% | 1014.9 hPa | 0 mm | - | - | - |
| 1777743735 | 19.44° C | 69% | 1014.8 hPa | 0 mm | - | - | - |
| 1777743431 | 18.89° C | 71% | 1014.9 hPa | 0 mm | - | - | - |
| 1777743129 | 18.33° C | 71% | 1015 hPa | 0 mm | - | - | - |
| 1777742827 | 17.78° C | 71% | 1015.1 hPa | 0 mm | - | - | - |
| 1777742522 | 18.33° C | 71% | 1015.2 hPa | 0 mm | - | - | - |
| 1777742218 | 18.89° C | 71% | 1015.1 hPa | 0 mm | - | - | - |
| 1777741915 | 18.89° C | 71% | 1015.1 hPa | 0 mm | - | - | - |
| 1777741613 | 18.89° C | 72% | 1015.2 hPa | 0 mm | - | - | - |
| 1777741310 | 18.89° C | 73% | 1015.1 hPa | 0 mm | - | - | - |
| 1777741006 | 18.89° C | 73% | 1015.1 hPa | 0 mm | - | - | - |
| 1777740703 | 18.33° C | 73% | 1015.2 hPa | 0 mm | - | - | - |
| 1777740399 | 18.89° C | 74% | 1015.3 hPa | 0 mm | - | - | - |
* Rain latest hour (hover to see other rain measurements)
** Current wind speed in m/s (hover to see current wind gust speed)